Regional Weather Roundup
Issued by NWS

Home | Current Version | Previous Version | Graphics & Text | Print | Product List | Glossary On
Versions: 1 2 3 4 5 6 7 8 9 10 11 12 13 14 15 16 17 18 19 20 21 22 23 24 25 26 27 28 29 30 31 32 33 34 35 36 37 38 39 40 41 42 43 44 45 46 47 48 49 50
000
ASUS43 KOAX 281910
RWRNE

WEATHER ROUNDUP FOR NEBRASKA
NATIONAL WEATHER SERVICE OMAHA NE
200 PM CDT SAT MAY 28 2016

NOTES: SATELLITE DATA IS BEING USED TO AUGMENT CLOUD COVER ABOVE
       12000 FEET.
       "FAIR" INDICATES FEW OR NO CLOUDS BELOW 12,000 FEET WITH NO
       SIGNIFICANT WEATHER AND/OR OBSTRUCTIONS TO VISIBILITY.

  * THESE STATIONS DO NOT REPORT WEATHER SUCH AS RAIN...SNOW OR FOG.

NEZ001>004-019>022-054>056-282000-
NEBRASKA PANHANDLE

CITY           SKY/WX    TMP DP  RH WIND       PRES   REMARKS
SCOTTSBLUFF    SUNNY     73  44  35 W9        29.95F
ALLIANCE       MOSUNNY   69  45  41 VRB5      29.94F
CHADRON        MOSUNNY   70  43  37 CALM      29.92F
KIMBALL        CLOUDY    65  43  44 N5        30.00F
SIDNEY         SUNNY     70  46  42 W8        29.99F
$$

NEZ057>060-069>072-079>082-282000-
SOUTHWEST NEBRASKA

CITY           SKY/WX    TMP DP  RH WIND       PRES   REMARKS
NORTH PLATTE   PTSUNNY   68  51  54 W7        29.93S
IMPERIAL       MOSUNNY   70  50  49 W14G21    29.97S
LEXINGTON      PTSUNNY   70  56  61 W7        29.92S
MCCOOK         MOSUNNY   73  51  46 W7        29.94F
OGALLALA       MOSUNNY   71  49  45 W8        29.95F
$$

NEZ005>010-023>029-035>040-094-282000-
NORTH CENTRAL NEBRASKA

CITY           SKY/WX    TMP DP  RH WIND       PRES   REMARKS
VALENTINE      MOSUNNY   70  48  45 NW8       29.89F
AINSWORTH      PTSUNNY   69  52  54 NW10G16   29.89F
BROKEN BOW     MOSUNNY   70  52  52 NW15      29.90S
O`NEILL        PTSUNNY   66  58  77 NW10      29.85F
ORD            MOSUNNY   70  52  52 NW17G26   29.86S
THEDFORD       MOSUNNY   69  49  49 NW13      29.92S
$$

NEZ041-046>049-061>064-073>077-083>087-282000-
SOUTH CENTRAL NEBRASKA

CITY           SKY/WX    TMP DP  RH WIND       PRES   REMARKS
GRAND ISLAND   PTSUNNY   69  54  58 NW20G25   29.87S
AURORA         PTSUNNY   70  59  67 W14       29.87R
HASTINGS       MOSUNNY   72  51  47 NW20G26   29.88S
HEBRON         PTSUNNY   71  58  61 W13       29.87F
HOLDREGE       PTSUNNY   70  53  54 W10G16    29.91F
KEARNEY *      MOSUNNY   72  52  49 NW15      29.90F
YORK           MOSUNNY   70  57  64 NW15      29.85S
$$

NEZ011>018-030>034-042>045-282000-
NORTHEAST NEBRASKA

CITY           SKY/WX    TMP DP  RH WIND       PRES   REMARKS
NORFOLK        CLOUDY    65  56  72 NW20      29.80R
ALBION         CLOUDY    65  58  77 NW15      29.86R
BLAIR          CLOUDY    66  59  79 W21       29.79F
FREMONT        PTSUNNY   65  61  87 W15       29.80F
TEKAMAH        PTSUNNY   69  58  67 SW22G29   29.75F
WAYNE          CLOUDY    63  59  88 NW20G30   29.77R
$$

NEZ050>053-065>068-078-088>093-282000-
SOUTHEAST NEBRASKA

CITY           SKY/WX    TMP DP  RH WIND       PRES   REMARKS
LINCOLN        CLOUDY    71  56  58 W14G24    29.83S
OMAHA EPPLEY   PTSUNNY   71  56  58 SW17G26   29.79R
BEATRICE       MOSUNNY   71  57  61 W16       29.85F
FALLS CITY     MOSUNNY   72  60  66 W15G23    29.85R
NEBRASKA CITY  MOSUNNY   72  58  62 W15       29.84S
PLATTSMOUTH    CLOUDY    71  58  64 W15G21    29.82S
$$

NEZ044-045-051>053-067-282000-
OMAHA AREA

CITY           SKY/WX    TMP DP  RH WIND       PRES   REMARKS
OMAHA EPPLEY   PTSUNNY   71  56  58 SW17G26   29.79R
BLAIR          CLOUDY    66  59  79 W21       29.79F
FREMONT        PTSUNNY   65  61  87 W15       29.80F
MILLARD        PTSUNNY   71  58  62 W10G21    29.80S
OFFUTT AFB     PTSUNNY   72  57  60 W17G23    29.79S
PLATTSMOUTH    CLOUDY    71  58  64 W15G21    29.82S
WAHOO          CLOUDY    67  58  73 W20       29.82R
$$




USA.gov is the U.S. government's official web portal to all federal, state and local government web resources and services.